AUA42CQ LEPA-LOWW

Flight info

Callsign AUA42CQ
Flight time N/A
Altitude 36000
Route MEROS DCT LAPIT DCT CHELY/N0445F320 DCT LUMAS/N0443F340 DCT UNANA/N0440F300 DCT STP/N0444F360 DCT RAPED DCT PIGOS DCT EKSID DCT NOSTA DCT EGHIN/N0448F370 DCT ARALD DCT ABTAN ABTAN2W
Aircraft A320/M-SDE3FGHIRWY/LB1

Departure

Time N/A
Airport Palma de Mallorca Airport (LEPA)

Arrival

Time 2026-04-30 18:38
Airport Vienna International Airport (LOWW)
Time Latitude Longitude Altitude Speed Heading
2026-04-30 17:39 44.78156 9.52641 36265 ft 441 kts 49°
2026-04-30 17:42 44.96624 9.86838 36255 ft 437 kts 49°
2026-04-30 17:43 45.05718 10.03844 36285 ft 435 kts 49°
2026-04-30 17:44 45.16613 10.24322 36296 ft 433 kts 49°
2026-04-30 17:47 45.32809 10.55062 36303 ft 432 kts 49°
2026-04-30 17:48 45.45321 10.79042 36300 ft 432 kts 49°
2026-04-30 17:50 45.59562 11.06578 36313 ft 432 kts 49°
2026-04-30 17:52 45.70206 11.27322 36322 ft 431 kts 50°
2026-04-30 17:54 45.86034 11.58495 36327 ft 430 kts 50°
2026-04-30 17:56 45.99984 11.86214 36314 ft 428 kts 50°
2026-04-30 17:58 46.10347 12.07005 36308 ft 426 kts 50°
2026-04-30 18:00 46.24063 12.34764 36308 ft 425 kts 51°
2026-04-30 18:01 46.32587 12.52168 36313 ft 424 kts 51°
2026-04-30 18:02 46.42730 12.73008 36319 ft 422 kts 51°
2026-04-30 18:04 46.52816 12.93847 36314 ft 421 kts 52°
2026-04-30 18:06 46.66147 13.21694 36322 ft 419 kts 52°
2026-04-30 18:08 46.76010 13.47829 36335 ft 422 kts 59°
2026-04-30 18:10 46.86716 13.78225 36353 ft 421 kts 59°
2026-04-30 18:11 46.96023 14.04916 36364 ft 420 kts 59°
2026-04-30 18:13 47.02591 14.23953 36373 ft 419 kts 59°
2026-04-30 18:14 47.09128 14.42983 36370 ft 419 kts 60°
2026-04-30 18:15 47.12324 14.54929 36011 ft 423 kts 72°
2026-04-30 18:15 47.14451 14.67438 35286 ft 419 kts 71°
2026-04-30 18:16 47.15877 14.75733 34249 ft 422 kts 71°
2026-04-30 18:16 47.17304 14.84070 32373 ft 423 kts 72°
2026-04-30 18:17 47.18006 14.88220 31849 ft 415 kts 72°
2026-04-30 18:17 47.18696 14.92317 31250 ft 410 kts 72°
2026-04-30 18:17 47.20046 15.00358 30031 ft 401 kts 72°
2026-04-30 18:18 47.20709 15.04311 29458 ft 395 kts 72°
2026-04-30 18:18 47.21365 15.08208 28902 ft 389 kts 72°
2026-04-30 18:18 47.22012 15.12051 28349 ft 385 kts 72°
2026-04-30 18:18 47.22642 15.15801 27818 ft 381 kts 72°
2026-04-30 18:19 47.23271 15.19553 27286 ft 376 kts 72°
2026-04-30 18:19 47.23892 15.23282 26755 ft 372 kts 72°
2026-04-30 18:19 47.24496 15.26946 26247 ft 369 kts 72°
2026-04-30 18:19 47.25100 15.30618 25743 ft 366 kts 72°
2026-04-30 18:20 47.25701 15.34249 25254 ft 364 kts 72°
2026-04-30 18:20 47.26299 15.37857 24774 ft 362 kts 72°
2026-04-30 18:20 47.26891 15.41441 24303 ft 360 kts 72°
2026-04-30 18:20 47.27478 15.45015 23818 ft 358 kts 72°
2026-04-30 18:21 47.28052 15.48503 23341 ft 354 kts 72°
2026-04-30 18:21 47.28625 15.52008 22886 ft 350 kts 72°
2026-04-30 18:21 47.29190 15.55468 22437 ft 345 kts 72°
2026-04-30 18:21 47.29746 15.58884 21990 ft 342 kts 72°
2026-04-30 18:22 47.30296 15.62271 21554 ft 338 kts 72°
2026-04-30 18:22 47.31381 15.68983 20637 ft 335 kts 73°
2026-04-30 18:22 47.31918 15.72309 20185 ft 333 kts 73°
2026-04-30 18:23 47.32446 15.75588 19589 ft 336 kts 73°
2026-04-30 18:23 47.32986 15.78941 19107 ft 336 kts 73°
2026-04-30 18:23 47.33524 15.82279 18652 ft 334 kts 73°
2026-04-30 18:23 47.34057 15.85597 18176 ft 332 kts 73°
2026-04-30 18:24 47.35074 15.92007 17926 ft 309 kts 73°
2026-04-30 18:24 47.35561 15.95083 17852 ft 309 kts 73°
2026-04-30 18:24 47.36220 15.98189 17520 ft 325 kts 60°
2026-04-30 18:25 47.37588 16.00808 17103 ft 324 kts 40°
2026-04-30 18:25 47.41088 16.04924 16280 ft 323 kts 37°
2026-04-30 18:25 47.42850 16.06968 15869 ft 322 kts 37°
2026-04-30 18:26 47.46353 16.11039 15045 ft 319 kts 37°
2026-04-30 18:26 47.48094 16.13062 14634 ft 318 kts 37°
2026-04-30 18:26 47.49826 16.15082 14221 ft 317 kts 38°
2026-04-30 18:27 47.53267 16.19107 13357 ft 313 kts 38°
2026-04-30 18:27 47.54949 16.21077 12939 ft 312 kts 38°
2026-04-30 18:28 47.58325 16.25043 12094 ft 309 kts 38°
2026-04-30 18:28 47.60000 16.27018 11666 ft 307 kts 38°
2026-04-30 18:28 47.63320 16.30926 10813 ft 304 kts 38°
2026-04-30 18:29 47.64975 16.32878 10684 ft 303 kts 38°
2026-04-30 18:29 47.69913 16.38714 9756 ft 302 kts 38°
2026-04-30 18:30 47.72628 16.41920 9064 ft 286 kts 38°
2026-04-30 18:30 47.76061 16.45982 8096 ft 262 kts 38°
2026-04-30 18:31 47.77487 16.47668 7691 ft 262 kts 38°
2026-04-30 18:31 47.80317 16.51027 6891 ft 259 kts 38°
2026-04-30 18:32 47.83126 16.54367 6059 ft 256 kts 37°
2026-04-30 18:32 47.84490 16.55991 5638 ft 252 kts 37°
2026-04-30 18:32 47.87096 16.59104 4805 ft 231 kts 37°
2026-04-30 18:33 47.88343 16.60590 4388 ft 230 kts 37°
2026-04-30 18:33 47.90840 16.63564 3588 ft 229 kts 37°
2026-04-30 18:33 47.92120 16.64951 3199 ft 227 kts 25°
2026-04-30 18:34 47.93606 16.65419 3008 ft 210 kts 357°
2026-04-30 18:34 47.96188 16.64470 3035 ft 179 kts 346°
2026-04-30 18:34 47.97375 16.63973 2940 ft 176 kts 346°
2026-04-30 18:35 47.98515 16.63493 2751 ft 163 kts 346°
2026-04-30 18:35 47.99563 16.63052 2546 ft 150 kts 346°
2026-04-30 18:35 48.00520 16.62649 2375 ft 138 kts 346°
2026-04-30 18:36 48.02317 16.61894 1998 ft 132 kts 347°
2026-04-30 18:36 48.03196 16.61524 1815 ft 131 kts 346°
2026-04-30 18:36 48.04941 16.60789 1446 ft 132 kts 346°
2026-04-30 18:37 48.05820 16.60419 1265 ft 132 kts 346°
2026-04-30 18:37 48.06707 16.60060 1053 ft 132 kts 346°
2026-04-30 18:37 48.07587 16.59677 875 ft 133 kts 343°
2026-04-30 18:37 48.08478 16.59309 720 ft 132 kts 345°
2026-04-30 18:38 48.09353 16.58923 613 ft 125 kts 344°
2026-04-30 18:38 48.10055 16.58630 613 ft 80 kts 343°
2026-04-30 18:38 48.10490 16.58447 615 ft 44 kts 344°
2026-04-30 18:38 48.10713 16.58298 618 ft 30 kts 323°
2026-04-30 18:39 48.10814 16.58155 615 ft 17 kts 315°
2026-04-30 18:39 48.10901 16.58020 609 ft 19 kts 315°
2026-04-30 18:39 48.11024 16.57942 613 ft 20 kts 344°
2026-04-30 18:39 48.11162 16.57885 617 ft 21 kts 344°
2026-04-30 18:40 48.11310 16.57821 615 ft 23 kts 344°
2026-04-30 18:40 48.11450 16.57762 617 ft 19 kts 344°
2026-04-30 18:40 48.11583 16.57706 619 ft 21 kts 344°
2026-04-30 18:40 48.11714 16.57650 614 ft 16 kts 344°
2026-04-30 18:41 48.11824 16.57590 613 ft 17 kts 313°
2026-04-30 18:41 48.11816 16.57448 615 ft 12 kts 253°
2026-04-30 18:41 48.11815 16.57336 610 ft 10 kts 291°
2026-04-30 18:41 48.11845 16.57245 611 ft 9 kts 296°
2026-04-30 18:42 48.11859 16.57132 609 ft 14 kts 288°
2026-04-30 18:42 48.11940 16.56879 613 ft 11 kts 296°
2026-04-30 18:42 48.11967 16.56797 621 ft 8 kts 296°
2026-04-30 18:45 48.11918 16.56716 622 ft 0 kts 206°